Private Wetterstation Sandau
Wetterdaten: Donnerstag, 15.03.2012
Datum Zeit Temp. A. Feuchte A. Luftdruck Regen Wind Richtung Richtung Taupunkt Windchill
15.03.2012 00:02 7,4 C 80 % 1031,6 hPa 0,0 l/m 2,5 km/h (1 Bft) W-NW 292 4,2 C 7,4 C
15.03.2012 00:07 7,4 C 80 % 1031,6 hPa 0,0 l/m 3,2 km/h (1 Bft) W-NW 292 4,2 C 7,4 C
15.03.2012 00:12 7,4 C 80 % 1031,7 hPa 0,0 l/m 6,1 km/h (2 Bft) W-SW 247 4,2 C 6,5 C
15.03.2012 00:17 7,4 C 81 % 1031,8 hPa 0,0 l/m 2,5 km/h (1 Bft) W 270 4,4 C 7,4 C
15.03.2012 00:22 7,4 C 81 % 1031,6 hPa 0,0 l/m 3,6 km/h (1 Bft) W-NW 292 4,4 C 7,4 C
15.03.2012 00:27 7,4 C 81 % 1031,8 hPa 0,0 l/m 3,2 km/h (1 Bft) W 270 4,4 C 7,4 C
15.03.2012 00:32 7,4 C 81 % 1031,9 hPa 0,0 l/m 5,0 km/h (1 Bft) W-SW 247 4,4 C 6,8 C
15.03.2012 00:37 7,4 C 81 % 1031,9 hPa 0,0 l/m 0,0 km/h (0 Bft) W 270 4,4 C 7,4 C
15.03.2012 00:42 7,4 C 81 % 1031,9 hPa 0,0 l/m 3,6 km/h (1 Bft) W 270 4,4 C 7,4 C
15.03.2012 00:47 7,3 C 81 % 1031,9 hPa 0,0 l/m 1,4 km/h (1 Bft) W-SW 247 4,3 C 7,3 C
15.03.2012 00:52 7,3 C 81 % 1031,9 hPa 0,0 l/m 2,2 km/h (1 Bft) W-SW 247 4,3 C 7,3 C
15.03.2012 00:57 7,3 C 81 % 1031,9 hPa 0,0 l/m 1,4 km/h (1 Bft) W-SW 247 4,3 C 7,3 C
15.03.2012 01:02 7,3 C 81 % 1032,0 hPa 0,0 l/m 2,9 km/h (1 Bft) W-SW 247 4,3 C 7,3 C
15.03.2012 01:07 7,3 C 81 % 1031,9 hPa 0,0 l/m 1,1 km/h (1 Bft) W 270 4,3 C 7,3 C
15.03.2012 01:12 7,3 C 81 % 1031,9 hPa 0,0 l/m 1,4 km/h (1 Bft) W-SW 247 4,3 C 7,3 C
15.03.2012 01:17 7,3 C 81 % 1032,0 hPa 0,0 l/m 0,0 km/h (0 Bft) W-SW 247 4,3 C 7,3 C
15.03.2012 01:22 7,3 C 81 % 1032,0 hPa 0,0 l/m 0,0 km/h (0 Bft) W-SW 247 4,3 C 7,3 C
15.03.2012 01:27 7,3 C 81 % 1031,8 hPa 0,0 l/m 1,8 km/h (1 Bft) W-SW 247 4,3 C 7,3 C
15.03.2012 01:32 7,3 C 81 % 1031,9 hPa 0,0 l/m 0,0 km/h (0 Bft) W 270 4,3 C 7,3 C
15.03.2012 01:37 7,3 C 81 % 1031,9 hPa 0,0 l/m 1,4 km/h (1 Bft) W 270 4,3 C 7,3 C
15.03.2012 01:42 7,3 C 81 % 1031,9 hPa 0,0 l/m 0,0 km/h (0 Bft) W 270 4,3 C 7,3 C
15.03.2012 01:47 7,3 C 81 % 1032,0 hPa 0,0 l/m 1,4 km/h (1 Bft) W 270 4,3 C 7,3 C
15.03.2012 01:52 7,2 C 81 % 1031,9 hPa 0,0 l/m 0,0 km/h (0 Bft) W 270 4,2 C 7,2 C
15.03.2012 01:57 7,2 C 81 % 1032,0 hPa 0,0 l/m 0,0 km/h (0 Bft) W 270 4,2 C 7,2 C
15.03.2012 02:02 7,2 C 81 % 1032,0 hPa 0,0 l/m 4,7 km/h (1 Bft) W-SW 247 4,2 C 6,7 C
15.03.2012 02:07 7,2 C 81 % 1032,0 hPa 0,0 l/m 2,5 km/h (1 Bft) W-SW 247 4,2 C 7,2 C
15.03.2012 02:12 7,2 C 81 % 1031,9 hPa 0,0 l/m 4,7 km/h (1 Bft) W-SW 247 4,2 C 6,7 C
15.03.2012 02:17 7,2 C 81 % 1031,8 hPa 0,0 l/m 2,5 km/h (1 Bft) W-SW 247 4,2 C 7,2 C
15.03.2012 02:22 7,2 C 81 % 1031,8 hPa 0,0 l/m 0,0 km/h (0 Bft) W-NW 292 4,2 C 7,2 C
15.03.2012 02:27 7,2 C 81 % 1031,8 hPa 0,0 l/m 0,0 km/h (0 Bft) W-SW 247 4,2 C 7,2 C
15.03.2012 02:32 7,2 C 81 % 1031,9 hPa 0,0 l/m 3,2 km/h (1 Bft) W 270 4,2 C 7,2 C
15.03.2012 02:37 7,2 C 82 % 1031,9 hPa 0,0 l/m 0,0 km/h (0 Bft) W-SW 247 4,3 C 7,2 C
15.03.2012 02:42 7,2 C 82 % 1031,8 hPa 0,0 l/m 3,2 km/h (1 Bft) W-SW 247 4,3 C 7,2 C
15.03.2012 02:47 7,2 C 82 % 1031,9 hPa 0,0 l/m 3,2 km/h (1 Bft) W-SW 247 4,3 C 7,2 C
15.03.2012 02:52 7,2 C 82 % 1031,9 hPa 0,0 l/m 0,0 km/h (0 Bft) W 270 4,3 C 7,2 C
15.03.2012 02:57 7,1 C 82 % 1032,0 hPa 0,0 l/m 2,5 km/h (1 Bft) W-SW 247 4,2 C 7,1 C
15.03.2012 03:02 7,1 C 82 % 1032,0 hPa 0,0 l/m 5,0 km/h (1 Bft) W-SW 247 4,2 C 6,5 C
15.03.2012 03:07 7,2 C 82 % 1031,6 hPa 0,0 l/m 4,0 km/h (1 Bft) W-SW 247 4,3 C 7,2 C
15.03.2012 03:12 7,1 C 82 % 1031,6 hPa 0,0 l/m 0,0 km/h (0 Bft) W 270 4,2 C 7,1 C
15.03.2012 03:17 7,1 C 82 % 1031,6 hPa 0,0 l/m 4,7 km/h (1 Bft) W-SW 247 4,2 C 6,6 C
15.03.2012 03:22 7,1 C 82 % 1031,7 hPa 0,0 l/m 1,4 km/h (1 Bft) W-SW 247 4,2 C 7,1 C
15.03.2012 03:27 7,1 C 82 % 1031,6 hPa 0,0 l/m 2,5 km/h (1 Bft) W-SW 247 4,2 C 7,1 C
15.03.2012 03:32 7,1 C 82 % 1031,6 hPa 0,0 l/m 1,4 km/h (1 Bft) W-SW 247 4,2 C 7,1 C
15.03.2012 03:37 7,1 C 82 % 1031,6 hPa 0,0 l/m 0,0 km/h (0 Bft) W-SW 247 4,2 C 7,1 C
15.03.2012 03:42 7,1 C 82 % 1031,6 hPa 0,0 l/m 2,5 km/h (1 Bft) W-SW 247 4,2 C 7,1 C
15.03.2012 03:47 7,0 C 82 % 1031,5 hPa 0,0 l/m 5,0 km/h (1 Bft) W-SW 247 4,1 C 6,4 C
15.03.2012 03:52 7,0 C 82 % 1031,6 hPa 0,0 l/m 4,0 km/h (1 Bft) W 270 4,1 C 7,0 C
15.03.2012 03:57 7,0 C 82 % 1031,6 hPa 0,0 l/m 0,0 km/h (0 Bft) W-SW 247 4,1 C 7,0 C
15.03.2012 04:02 7,0 C 82 % 1031,6 hPa 0,0 l/m 4,0 km/h (1 Bft) W-SW 247 4,1 C 7,0 C
15.03.2012 04:07 7,0 C 82 % 1031,6 hPa 0,0 l/m 1,4 km/h (1 Bft) W-SW 247 4,1 C 7,0 C
15.03.2012 04:12 7,0 C 82 % 1031,3 hPa 0,0 l/m 2,5 km/h (1 Bft) W 270 4,1 C 7,0 C
15.03.2012 04:17 6,9 C 82 % 1031,4 hPa 0,0 l/m 5,4 km/h (1 Bft) SW 225 4,0 C 6,1 C
15.03.2012 04:22 6,9 C 82 % 1031,3 hPa 0,0 l/m 4,0 km/h (1 Bft) W-SW 247 4,0 C 6,9 C
15.03.2012 04:27 6,9 C 82 % 1031,3 hPa 0,0 l/m 4,0 km/h (1 Bft) W-SW 247 4,0 C 6,9 C
15.03.2012 04:32 6,9 C 82 % 1031,2 hPa 0,0 l/m 3,2 km/h (1 Bft) W 270 4,0 C 6,9 C
15.03.2012 04:37 6,9 C 82 % 1031,4 hPa 0,0 l/m 2,5 km/h (1 Bft) W-SW 247 4,0 C 6,9 C
15.03.2012 04:42 6,9 C 82 % 1031,4 hPa 0,0 l/m 4,7 km/h (1 Bft) W-SW 247 4,0 C 6,3 C
15.03.2012 04:47 6,9 C 82 % 1031,3 hPa 0,0 l/m 0,0 km/h (0 Bft) W 270 4,0 C 6,9 C
15.03.2012 04:52 6,9 C 82 % 1031,1 hPa 0,0 l/m 2,9 km/h (1 Bft) W-SW 247 4,0 C 6,9 C
15.03.2012 04:57 6,9 C 82 % 1031,2 hPa 0,0 l/m 1,1 km/h (1 Bft) W 270 4,0 C 6,9 C
15.03.2012 05:02 6,9 C 82 % 1031,1 hPa 0,0 l/m 1,8 km/h (1 Bft) W-SW 247 4,0 C 6,9 C
15.03.2012 05:07 6,9 C 82 % 1031,1 hPa 0,0 l/m 4,0 km/h (1 Bft) W-SW 247 4,0 C 6,9 C
15.03.2012 05:12 6,9 C 82 % 1031,1 hPa 0,0 l/m 3,6 km/h (1 Bft) W-SW 247 4,0 C 6,9 C
15.03.2012 05:17 6,9 C 82 % 1031,0 hPa 0,0 l/m 2,9 km/h (1 Bft) W-SW 247 4,0 C 6,9 C
15.03.2012 05:22 6,9 C 82 % 1030,9 hPa 0,0 l/m 4,0 km/h (1 Bft) W 270 4,0 C 6,9 C
15.03.2012 05:27 6,9 C 82 % 1031,0 hPa 0,0 l/m 1,8 km/h (1 Bft) W-NW 292 4,0 C 6,9 C
15.03.2012 05:32 6,8 C 82 % 1031,1 hPa 0,0 l/m 4,0 km/h (1 Bft) W 270 3,9 C 6,8 C
15.03.2012 05:37 6,8 C 82 % 1031,1 hPa 0,0 l/m 5,0 km/h (1 Bft) W-SW 247 3,9 C 6,1 C
15.03.2012 05:42 6,8 C 82 % 1031,0 hPa 0,0 l/m 0,0 km/h (0 Bft) W 270 3,9 C 6,8 C
15.03.2012 05:47 6,8 C 82 % 1031,0 hPa 0,0 l/m 1,4 km/h (1 Bft) W 270 3,9 C 6,8 C
15.03.2012 05:52 6,8 C 82 % 1031,0 hPa 0,0 l/m 3,2 km/h (1 Bft) W-SW 247 3,9 C 6,8 C
15.03.2012 05:57 6,8 C 82 % 1030,9 hPa 0,0 l/m 0,0 km/h (0 Bft) W-SW 247 3,9 C 6,8 C
15.03.2012 06:02 6,8 C 82 % 1031,0 hPa 0,0 l/m 0,0 km/h (0 Bft) W 270 3,9 C 6,8 C
15.03.2012 06:07 6,8 C 82 % 1031,1 hPa 0,0 l/m 2,9 km/h (1 Bft) W 270 3,9 C 6,8 C
15.03.2012 06:12 6,8 C 82 % 1031,2 hPa 0,0 l/m 0,0 km/h (0 Bft) W 270 3,9 C 6,8 C
15.03.2012 06:17 6,8 C 82 % 1030,9 hPa 0,0 l/m 1,4 km/h (1 Bft) W 270 3,9 C 6,8 C
15.03.2012 06:22 6,8 C 82 % 1031,0 hPa 0,0 l/m 2,5 km/h (1 Bft) W-SW 247 3,9 C 6,8 C
15.03.2012 06:27 6,8 C 82 % 1031,0 hPa 0,0 l/m 1,1 km/h (1 Bft) W 270 3,9 C 6,8 C
15.03.2012 06:32 6,7 C 82 % 1031,2 hPa 0,0 l/m 0,0 km/h (0 Bft) W-SW 247 3,8 C 6,7 C
15.03.2012 06:37 6,7 C 82 % 1031,0 hPa 0,0 l/m 6,1 km/h (2 Bft) W-NW 292 3,8 C 5,6 C
15.03.2012 06:42 6,7 C 82 % 1031,0 hPa 0,0 l/m 1,4 km/h (1 Bft) W-SW 247 3,8 C 6,7 C
15.03.2012 06:47 6,7 C 82 % 1030,8 hPa 0,0 l/m 0,0 km/h (0 Bft) W-SW 247 3,8 C 6,7 C
15.03.2012 06:52 6,7 C 82 % 1030,9 hPa 0,0 l/m 1,4 km/h (1 Bft) W-SW 247 3,8 C 6,7 C
15.03.2012 06:57 6,7 C 82 % 1030,9 hPa 0,0 l/m 0,0 km/h (0 Bft) W 270 3,8 C 6,7 C
15.03.2012 07:02 6,7 C 82 % 1031,0 hPa 0,0 l/m 4,0 km/h (1 Bft) W 270 3,8 C 6,7 C
15.03.2012 07:07 6,7 C 82 % 1030,9 hPa 0,0 l/m 2,2 km/h (1 Bft) NW 315 3,8 C 6,7 C
15.03.2012 07:12 6,7 C 82 % 1031,2 hPa 0,0 l/m 2,5 km/h (1 Bft) W 270 3,8 C 6,7 C
15.03.2012 07:17 6,7 C 82 % 1031,2 hPa 0,0 l/m 1,8 km/h (1 Bft) W 270 3,8 C 6,7 C
15.03.2012 07:22 6,7 C 82 % 1031,0 hPa 0,0 l/m 2,5 km/h (1 Bft) W 270 3,8 C 6,7 C
15.03.2012 07:27 6,8 C 82 % 1031,1 hPa 0,0 l/m 0,0 km/h (0 Bft) W 270 3,9 C 6,8 C
15.03.2012 07:32 6,8 C 82 % 1030,9 hPa 0,0 l/m 2,2 km/h (1 Bft) W-SW 247 3,9 C 6,8 C
15.03.2012 07:37 6,8 C 82 % 1031,1 hPa 0,0 l/m 2,5 km/h (1 Bft) W-SW 247 3,9 C 6,8 C
15.03.2012 07:42 6,8 C 82 % 1030,9 hPa 0,0 l/m 0,0 km/h (0 Bft) W-SW 247 3,9 C 6,8 C
15.03.2012 07:47 6,8 C 82 % 1031,0 hPa 0,0 l/m 0,0 km/h (0 Bft) W-SW 247 3,9 C 6,8 C
15.03.2012 07:52 6,9 C 82 % 1031,1 hPa 0,0 l/m 0,0 km/h (0 Bft) W-SW 247 4,0 C 6,9 C
15.03.2012 07:57 6,9 C 82 % 1031,0 hPa 0,0 l/m 0,0 km/h (0 Bft) W-SW 247 4,0 C 6,9 C
15.03.2012 08:02 6,9 C 82 % 1031,1 hPa 0,0 l/m 0,0 km/h (0 Bft) W-SW 247 4,0 C 6,9 C
15.03.2012 08:07 6,9 C 82 % 1030,9 hPa 0,0 l/m 0,0 km/h (0 Bft) W 270 4,0 C 6,9 C
15.03.2012 08:12 6,9 C 82 % 1030,9 hPa 0,0 l/m 0,0 km/h (0 Bft) W-SW 247 4,0 C 6,9 C
15.03.2012 08:17 6,9 C 82 % 1031,0 hPa 0,0 l/m 1,4 km/h (1 Bft) S-SO 157 4,0 C 6,9 C
15.03.2012 08:22 7,0 C 82 % 1031,1 hPa 0,0 l/m 1,4 km/h (1 Bft) W 270 4,1 C 7,0 C
15.03.2012 08:27 7,0 C 82 % 1031,1 hPa 0,0 l/m 0,0 km/h (0 Bft) W-SW 247 4,1 C 7,0 C
15.03.2012 08:32 7,0 C 82 % 1030,9 hPa 0,0 l/m 0,0 km/h (0 Bft) W-SW 247 4,1 C 7,0 C
15.03.2012 08:37 7,1 C 82 % 1031,0 hPa 0,0 l/m 3,2 km/h (1 Bft) W-SW 247 4,2 C 7,1 C
15.03.2012 08:42 7,1 C 82 % 1031,2 hPa 0,0 l/m 4,0 km/h (1 Bft) W-SW 247 4,2 C 7,1 C
15.03.2012 08:47 7,2 C 81 % 1031,0 hPa 0,0 l/m 3,6 km/h (1 Bft) SW 225 4,2 C 7,2 C
15.03.2012 08:52 7,2 C 81 % 1031,1 hPa 0,0 l/m 0,0 km/h (0 Bft) W-SW 247 4,2 C 7,2 C
15.03.2012 08:57 7,2 C 81 % 1031,2 hPa 0,0 l/m 0,0 km/h (0 Bft) W 270 4,2 C 7,2 C
15.03.2012 09:02 7,3 C 81 % 1031,1 hPa 0,0 l/m 1,4 km/h (1 Bft) W-SW 247 4,3 C 7,3 C
15.03.2012 09:07 7,3 C 81 % 1031,1 hPa 0,0 l/m 1,4 km/h (1 Bft) W-SW 247 4,3 C 7,3 C
15.03.2012 09:12 7,4 C 81 % 1031,2 hPa 0,0 l/m 2,5 km/h (1 Bft) W-SW 247 4,4 C 7,4 C
15.03.2012 09:17 7,4 C 81 % 1031,2 hPa 0,0 l/m 0,0 km/h (0 Bft) W 270 4,4 C 7,4 C
15.03.2012 09:22 7,5 C 80 % 1031,1 hPa 0,0 l/m 3,2 km/h (1 Bft) W 270 4,3 C 7,5 C
15.03.2012 09:27 7,6 C 80 % 1031,1 hPa 0,0 l/m 0,0 km/h (0 Bft) W-SW 247 4,4 C 7,6 C
15.03.2012 09:32 7,6 C 80 % 1031,2 hPa 0,0 l/m 2,5 km/h (1 Bft) W-SW 247 4,4 C 7,6 C
15.03.2012 09:37 7,6 C 79 % 1031,2 hPa 0,0 l/m 1,8 km/h (1 Bft) W-SW 247 4,2 C 7,6 C
15.03.2012 09:42 7,8 C 79 % 1031,2 hPa 0,0 l/m 4,0 km/h (1 Bft) W-SW 247 4,4 C 7,8 C
15.03.2012 09:47 7,8 C 79 % 1031,0 hPa 0,0 l/m 2,2 km/h (1 Bft) W 270 4,4 C 7,8 C
15.03.2012 09:52 7,9 C 78 % 1031,0 hPa 0,0 l/m 0,0 km/h (0 Bft) S-SW 202 4,3 C 7,9 C
15.03.2012 09:57 7,9 C 78 % 1031,1 hPa 0,0 l/m 4,3 km/h (1 Bft) SW 225 4,3 C 7,9 C
15.03.2012 10:02 7,9 C 77 % 1031,0 hPa 0,0 l/m 2,9 km/h (1 Bft) S-SO 157 4,1 C 7,9 C
15.03.2012 10:07 8,1 C 77 % 1031,0 hPa 0,0 l/m 2,9 km/h (1 Bft) S-SW 202 4,3 C 8,1 C
15.03.2012 10:12 8,2 C 77 % 1031,0 hPa 0,0 l/m 3,6 km/h (1 Bft) S-SW 202 4,4 C 8,2 C
15.03.2012 10:17 8,3 C 77 % 1030,9 hPa 0,0 l/m 6,8 km/h (2 Bft) S-SW 202 4,5 C 7,3 C
15.03.2012 10:22 8,4 C 77 % 1031,1 hPa 0,0 l/m 2,5 km/h (1 Bft) SW 225 4,6 C 8,4 C
15.03.2012 10:27 8,5 C 77 % 1030,9 hPa 0,0 l/m 2,2 km/h (1 Bft) W 270 4,7 C 8,5 C
15.03.2012 10:32 8,5 C 76 % 1031,0 hPa 0,0 l/m 0,0 km/h (0 Bft) W-NW 292 4,5 C 8,5 C
15.03.2012 10:37 8,6 C 75 % 1031,1 hPa 0,0 l/m 1,8 km/h (1 Bft) S 180 4,4 C 8,6 C
15.03.2012 10:42 8,7 C 74 % 1031,1 hPa 0,0 l/m 11,2 km/h (2 Bft) W-SW 247 4,3 C 6,9 C
15.03.2012 10:47 8,7 C 73 % 1031,0 hPa 0,0 l/m 0,0 km/h (0 Bft) W-SW 247 4,1 C 8,7 C
15.03.2012 10:52 8,8 C 73 % 1031,0 hPa 0,0 l/m 4,3 km/h (1 Bft) S-SW 202 4,2 C 8,8 C
15.03.2012 10:57 8,8 C 72 % 1031,0 hPa 0,0 l/m 4,0 km/h (1 Bft) W-SW 247 4,0 C 8,8 C
15.03.2012 11:02 8,9 C 71 % 1031,2 hPa 0,0 l/m 4,3 km/h (1 Bft) SW 225 3,9 C 8,9 C
15.03.2012 11:07 8,9 C 71 % 1030,9 hPa 0,0 l/m 1,8 km/h (1 Bft) W-SW 247 3,9 C 8,9 C
15.03.2012 11:12 8,9 C 70 % 1030,9 hPa 0,0 l/m 3,2 km/h (1 Bft) W-SW 247 3,7 C 8,9 C
15.03.2012 11:17 8,9 C 70 % 1030,9 hPa 0,0 l/m 4,0 km/h (1 Bft) S-SW 202 3,7 C 8,9 C
15.03.2012 11:22 8,9 C 70 % 1030,9 hPa 0,0 l/m 4,3 km/h (1 Bft) W-SW 247 3,7 C 8,9 C
15.03.2012 11:27 9,0 C 70 % 1030,9 hPa 0,0 l/m 11,9 km/h (2 Bft) W-SW 247 3,8 C 7,1 C
15.03.2012 11:32 9,1 C 70 % 1030,8 hPa 0,0 l/m 7,2 km/h (2 Bft) S-SO 157 3,9 C 8,1 C
15.03.2012 11:37 9,1 C 69 % 1030,9 hPa 0,0 l/m 2,5 km/h (1 Bft) S-SW 202 3,7 C 9,1 C
15.03.2012 11:42 9,2 C 69 % 1030,8 hPa 0,0 l/m 9,0 km/h (2 Bft) S-SW 202 3,8 C 7,9 C
15.03.2012 11:47 9,2 C 69 % 1030,8 hPa 0,0 l/m 6,8 km/h (2 Bft) S 180 3,8 C 8,3 C
15.03.2012 11:52 9,3 C 69 % 1030,9 hPa 0,0 l/m 6,1 km/h (2 Bft) S 180 3,9 C 8,6 C
15.03.2012 11:57 9,3 C 68 % 1030,7 hPa 0,0 l/m 3,6 km/h (1 Bft) S-SW 202 3,7 C 9,3 C
15.03.2012 12:02 9,4 C 68 % 1030,8 hPa 0,0 l/m 10,1 km/h (2 Bft) S 180 3,8 C 7,9 C
15.03.2012 12:07 9,4 C 68 % 1030,8 hPa 0,0 l/m 3,6 km/h (1 Bft) S 180 3,8 C 9,4 C
15.03.2012 12:12 9,5 C 68 % 1030,8 hPa 0,0 l/m 10,1 km/h (2 Bft) S-SO 157 3,9 C 8,0 C
15.03.2012 12:17 9,6 C 68 % 1030,8 hPa 0,0 l/m 9,7 km/h (2 Bft) S-SW 202 4,0 C 8,2 C
15.03.2012 12:22 9,6 C 67 % 1030,8 hPa 0,0 l/m 7,2 km/h (2 Bft) S-SO 157 3,8 C 8,7 C
15.03.2012 12:27 9,6 C 67 % 1030,6 hPa 0,0 l/m 2,5 km/h (1 Bft) S-SW 202 3,8 C 9,6 C
15.03.2012 12:32 9,7 C 67 % 1030,6 hPa 0,0 l/m 8,3 km/h (2 Bft) S-SO 157 3,9 C 8,6 C
15.03.2012 12:37 9,8 C 67 % 1030,7 hPa 0,0 l/m 5,8 km/h (2 Bft) S-SW 202 4,0 C 9,3 C
15.03.2012 12:42 9,9 C 66 % 1030,5 hPa 0,0 l/m 5,8 km/h (2 Bft) S 180 3,9 C 9,4 C
15.03.2012 12:47 9,9 C 66 % 1030,5 hPa 0,0 l/m 10,1 km/h (2 Bft) S 180 3,9 C 8,5 C
15.03.2012 12:52 10,1 C 65 % 1030,5 hPa 0,0 l/m 0,0 km/h (0 Bft) O 90 3,8 C 10,1 C
15.03.2012 12:57 10,2 C 65 % 1030,5 hPa 0,0 l/m 6,1 km/h (2 Bft) S-SO 157 3,9 C 10,2 C
15.03.2012 13:02 10,3 C 65 % 1030,3 hPa 0,0 l/m 8,6 km/h (2 Bft) S 180 4,0 C 10,3 C
15.03.2012 13:07 10,4 C 65 % 1030,3 hPa 0,0 l/m 8,3 km/h (2 Bft) S 180 4,1 C 10,4 C
15.03.2012 13:12 10,4 C 64 % 1030,3 hPa 0,0 l/m 13,7 km/h (3 Bft) S-SW 202 3,9 C 10,4 C
15.03.2012 13:17 10,5 C 64 % 1030,1 hPa 0,0 l/m 13,3 km/h (3 Bft) S-SO 157 4,0 C 10,5 C
15.03.2012 13:22 10,5 C 64 % 1029,9 hPa 0,0 l/m 10,8 km/h (2 Bft) S 180 4,0 C 10,5 C
15.03.2012 13:27 10,6 C 63 % 1029,9 hPa 0,0 l/m 6,5 km/h (2 Bft) S 180 3,9 C 10,6 C
15.03.2012 13:32 10,9 C 63 % 1029,9 hPa 0,0 l/m 6,5 km/h (2 Bft) W-SW 247 4,1 C 10,9 C
15.03.2012 13:37 11,0 C 62 % 1029,9 hPa 0,0 l/m 7,9 km/h (2 Bft) S 180 4,0 C 11,0 C
15.03.2012 13:42 11,2 C 62 % 1029,8 hPa 0,0 l/m 7,6 km/h (2 Bft) S-SO 157 4,2 C 11,2 C
15.03.2012 13:47 11,3 C 62 % 1029,7 hPa 0,0 l/m 6,8 km/h (2 Bft) SO 135 4,3 C 11,3 C
15.03.2012 13:52 11,5 C 61 % 1029,6 hPa 0,0 l/m 7,2 km/h (2 Bft) S-SO 157 4,2 C 11,5 C
15.03.2012 13:57 11,5 C 61 % 1029,6 hPa 0,0 l/m 6,1 km/h (2 Bft) S-SW 202 4,2 C 11,5 C
15.03.2012 14:02 11,6 C 60 % 1029,3 hPa 0,0 l/m 4,7 km/h (1 Bft) S-SO 157 4,1 C 11,6 C
15.03.2012 14:07 11,7 C 60 % 1029,5 hPa 0,0 l/m 13,0 km/h (3 Bft) SW 225 4,2 C 11,7 C
15.03.2012 14:12 11,9 C 60 % 1029,3 hPa 0,0 l/m 4,0 km/h (1 Bft) S-SO 157 4,4 C 11,9 C
15.03.2012 14:17 12,0 C 59 % 1029,2 hPa 0,0 l/m 5,4 km/h (1 Bft) S 180 4,2 C 12,0 C
15.03.2012 14:22 12,1 C 59 % 1029,4 hPa 0,0 l/m 16,9 km/h (3 Bft) S-SO 157 4,3 C 12,1 C
15.03.2012 14:27 12,0 C 59 % 1029,2 hPa 0,0 l/m 8,3 km/h (2 Bft) SO 135 4,2 C 12,0 C
15.03.2012 14:32 12,1 C 59 % 1029,0 hPa 0,0 l/m 10,1 km/h (2 Bft) SO 135 4,3 C 12,1 C
15.03.2012 14:37 12,2 C 59 % 1029,2 hPa 0,0 l/m 9,0 km/h (2 Bft) SW 225 4,4 C 12,2 C
15.03.2012 14:42 12,2 C 59 % 1029,0 hPa 0,0 l/m 9,4 km/h (2 Bft) S 180 4,4 C 12,2 C
15.03.2012 14:47 12,2 C 58 % 1028,9 hPa 0,0 l/m 4,0 km/h (1 Bft) S-SW 202 4,2 C 12,2 C
15.03.2012 14:52 12,2 C 58 % 1028,7 hPa 0,0 l/m 5,8 km/h (2 Bft) S 180 4,2 C 12,2 C
15.03.2012 14:57 12,4 C 58 % 1028,7 hPa 0,0 l/m 11,2 km/h (2 Bft) S-SO 157 4,4 C 12,4 C
15.03.2012 15:02 12,3 C 58 % 1028,8 hPa 0,0 l/m 10,4 km/h (2 Bft) S-SO 157 4,3 C 12,3 C
15.03.2012 15:07 12,4 C 58 % 1028,9 hPa 0,0 l/m 7,9 km/h (2 Bft) S-SO 157 4,4 C 12,4 C
15.03.2012 15:12 12,4 C 58 % 1028,8 hPa 0,0 l/m 4,7 km/h (1 Bft) S 180 4,4 C 12,4 C
15.03.2012 15:17 12,4 C 57 % 1028,7 hPa 0,0 l/m 4,3 km/h (1 Bft) S-SO 157 4,1 C 12,4 C
15.03.2012 15:22 12,4 C 58 % 1028,7 hPa 0,0 l/m 4,0 km/h (1 Bft) SO 135 4,4 C 12,4 C
15.03.2012 15:27 12,4 C 57 % 1028,7 hPa 0,0 l/m 8,3 km/h (2 Bft) S 180 4,1 C 12,4 C
15.03.2012 15:32 12,4 C 57 % 1028,7 hPa 0,0 l/m 7,6 km/h (2 Bft) S 180 4,1 C 12,4 C
15.03.2012 15:37 12,4 C 57 % 1028,5 hPa 0,0 l/m 3,6 km/h (1 Bft) S-SO 157 4,1 C 12,4 C
15.03.2012 15:42 12,4 C 57 % 1028,5 hPa 0,0 l/m 8,3 km/h (2 Bft) SW 225 4,1 C 12,4 C
15.03.2012 15:47 12,4 C 57 % 1028,5 hPa 0,0 l/m 8,6 km/h (2 Bft) S 180 4,1 C 12,4 C
15.03.2012 15:52 12,3 C 57 % 1028,5 hPa 0,0 l/m 5,8 km/h (2 Bft) S-SW 202 4,0 C 12,3 C
15.03.2012 15:57 12,3 C 57 % 1028,4 hPa 0,0 l/m 10,1 km/h (2 Bft) S 180 4,0 C 12,3 C
15.03.2012 16:02 12,3 C 57 % 1028,3 hPa 0,0 l/m 7,2 km/h (2 Bft) SO 135 4,0 C 12,3 C
15.03.2012 16:07 12,3 C 58 % 1028,1 hPa 0,0 l/m 12,6 km/h (3 Bft) S-SO 157 4,3 C 12,3 C
15.03.2012 16:12 12,2 C 57 % 1028,2 hPa 0,0 l/m 1,4 km/h (1 Bft) S-SO 157 3,9 C 12,2 C
15.03.2012 16:17 12,2 C 58 % 1028,1 hPa 0,0 l/m 2,2 km/h (1 Bft) S-SW 202 4,2 C 12,2 C
15.03.2012 16:22 12,2 C 58 % 1028,2 hPa 0,0 l/m 6,5 km/h (2 Bft) S-SO 157 4,2 C 12,2 C
15.03.2012 16:27 12,1 C 58 % 1028,3 hPa 0,0 l/m 0,0 km/h (0 Bft) S 180 4,1 C 12,1 C
15.03.2012 16:32 12,2 C 58 % 1028,2 hPa 0,0 l/m 0,0 km/h (0 Bft) S 180 4,2 C 12,2 C
15.03.2012 16:37 12,2 C 58 % 1028,3 hPa 0,0 l/m 5,8 km/h (2 Bft) S-SO 157 4,2 C 12,2 C
15.03.2012 16:42 12,1 C 58 % 1028,2 hPa 0,0 l/m 5,4 km/h (1 Bft) SW 225 4,1 C 12,1 C
15.03.2012 16:47 11,9 C 58 % 1028,2 hPa 0,0 l/m 2,5 km/h (1 Bft) S-SO 157 3,9 C 11,9 C
15.03.2012 16:52 11,9 C 58 % 1028,1 hPa 0,0 l/m 4,7 km/h (1 Bft) S-SO 157 3,9 C 11,9 C
15.03.2012 16:57 11,8 C 58 % 1028,0 hPa 0,0 l/m 3,6 km/h (1 Bft) S 180 3,8 C 11,8 C
15.03.2012 17:02 11,6 C 59 % 1028,0 hPa 0,0 l/m 6,8 km/h (2 Bft) S 180 3,9 C 11,6 C
15.03.2012 17:07 11,6 C 59 % 1028,0 hPa 0,0 l/m 4,7 km/h (1 Bft) S 180 3,9 C 11,6 C
15.03.2012 17:12 11,5 C 59 % 1027,8 hPa 0,0 l/m 2,9 km/h (1 Bft) SO 135 3,8 C 11,5 C
15.03.2012 17:17 11,4 C 60 % 1027,6 hPa 0,0 l/m 0,0 km/h (0 Bft) S-SW 202 3,9 C 11,4 C
15.03.2012 17:22 11,3 C 60 % 1027,6 hPa 0,0 l/m 3,2 km/h (1 Bft) O-SO 112 3,8 C 11,3 C
15.03.2012 17:27 11,2 C 61 % 1027,7 hPa 0,0 l/m 4,7 km/h (1 Bft) S-SW 202 4,0 C 11,2 C
15.03.2012 17:32 11,1 C 61 % 1027,6 hPa 0,0 l/m 5,4 km/h (1 Bft) S-SO 157 3,9 C 11,1 C
15.03.2012 17:37 11,0 C 61 % 1027,6 hPa 0,0 l/m 3,2 km/h (1 Bft) SO 135 3,8 C 11,0 C
15.03.2012 17:42 10,9 C 62 % 1027,5 hPa 0,0 l/m 2,2 km/h (1 Bft) SO 135 3,9 C 10,9 C
15.03.2012 17:47 10,8 C 62 % 1027,5 hPa 0,0 l/m 1,8 km/h (1 Bft) S-SO 157 3,8 C 10,8 C
15.03.2012 17:52 10,7 C 62 % 1027,5 hPa 0,0 l/m 0,0 km/h (0 Bft) SO 135 3,7 C 10,7 C
15.03.2012 17:57 10,5 C 62 % 1027,4 hPa 0,0 l/m 0,0 km/h (0 Bft) S-SO 157 3,5 C 10,5 C
15.03.2012 18:02 10,4 C 62 % 1027,3 hPa 0,0 l/m 0,0 km/h (0 Bft) S-SO 157 3,4 C 10,4 C
15.03.2012 18:07 10,3 C 63 % 1027,2 hPa 0,0 l/m 0,0 km/h (0 Bft) S-SO 157 3,6 C 10,3 C
15.03.2012 18:12 10,1 C 63 % 1027,2 hPa 0,0 l/m 0,0 km/h (0 Bft) SO 135 3,4 C 10,1 C
15.03.2012 18:17 9,9 C 63 % 1027,2 hPa 0,0 l/m 2,2 km/h (1 Bft) SO 135 3,2 C 9,9 C
15.03.2012 18:22 9,8 C 64 % 1027,2 hPa 0,0 l/m 0,0 km/h (0 Bft) SO 135 3,3 C 9,8 C
15.03.2012 18:27 9,6 C 64 % 1027,1 hPa 0,0 l/m 2,2 km/h (1 Bft) SO 135 3,1 C 9,6 C
15.03.2012 18:32 9,4 C 64 % 1026,9 hPa 0,0 l/m 2,2 km/h (1 Bft) SO 135 2,9 C 9,4 C
15.03.2012 18:37 9,3 C 65 % 1027,0 hPa 0,0 l/m 0,0 km/h (0 Bft) SO 135 3,1 C 9,3 C
15.03.2012 18:42 9,2 C 65 % 1026,9 hPa 0,0 l/m 0,0 km/h (0 Bft) SO 135 3,0 C 9,2 C
15.03.2012 18:47 9,1 C 66 % 1026,8 hPa 0,0 l/m 2,5 km/h (1 Bft) SO 135 3,1 C 9,1 C
15.03.2012 18:52 8,9 C 66 % 1026,8 hPa 0,0 l/m 4,3 km/h (1 Bft) SO 135 2,9 C 8,9 C
15.03.2012 18:57 8,8 C 67 % 1026,9 hPa 0,0 l/m 5,0 km/h (1 Bft) SO 135 3,0 C 8,4 C
15.03.2012 19:02 8,6 C 67 % 1026,8 hPa 0,0 l/m 0,0 km/h (0 Bft) SO 135 2,8 C 8,6 C
15.03.2012 19:07 8,5 C 67 % 1026,9 hPa 0,0 l/m 3,2 km/h (1 Bft) SO 135 2,7 C 8,5 C
15.03.2012 19:12 8,4 C 68 % 1026,8 hPa 0,0 l/m 2,2 km/h (1 Bft) SO 135 2,8 C 8,4 C
15.03.2012 19:17 8,3 C 68 % 1026,8 hPa 0,0 l/m 1,4 km/h (1 Bft) S-SO 157 2,7 C 8,3 C
15.03.2012 19:22 8,2 C 68 % 1026,8 hPa 0,0 l/m 1,8 km/h (1 Bft) SO 135 2,7 C 8,2 C
15.03.2012 19:27 8,1 C 69 % 1026,8 hPa 0,0 l/m 2,5 km/h (1 Bft) S-SO 157 2,8 C 8,1 C
15.03.2012 19:32 7,9 C 69 % 1026,7 hPa 0,0 l/m 3,2 km/h (1 Bft) S 180 2,6 C 7,9 C
15.03.2012 19:37 7,9 C 69 % 1026,6 hPa 0,0 l/m 0,0 km/h (0 Bft) S-SO 157 2,6 C 7,9 C
15.03.2012 19:42 7,9 C 69 % 1026,8 hPa 0,0 l/m 0,0 km/h (0 Bft) S-SO 157 2,6 C 7,9 C
15.03.2012 19:47 7,8 C 69 % 1026,8 hPa 0,0 l/m 2,2 km/h (1 Bft) S-SO 157 2,5 C 7,8 C
15.03.2012 19:52 7,8 C 70 % 1026,5 hPa 0,0 l/m 3,2 km/h (1 Bft) S-SO 157 2,7 C 7,8 C
15.03.2012 19:57 7,6 C 70 % 1026,6 hPa 0,0 l/m 0,0 km/h (0 Bft) S-SO 157 2,5 C 7,6 C
15.03.2012 20:02 7,5 C 70 % 1026,6 hPa 0,0 l/m 1,8 km/h (1 Bft) SO 135 2,4 C 7,5 C
15.03.2012 20:07 7,4 C 71 % 1026,5 hPa 0,0 l/m 2,5 km/h (1 Bft) S-SO 157 2,5 C 7,4 C
15.03.2012 20:12 7,3 C 71 % 1026,4 hPa 0,0 l/m 0,0 km/h (0 Bft) S-SO 157 2,4 C 7,3 C
15.03.2012 20:17 7,2 C 71 % 1026,3 hPa 0,0 l/m 3,2 km/h (1 Bft) S-SO 157 2,3 C 7,2 C
15.03.2012 20:22 7,1 C 71 % 1026,3 hPa 0,0 l/m 1,8 km/h (1 Bft) S-SO 157 2,2 C 7,1 C
15.03.2012 20:27 7,1 C 72 % 1026,3 hPa 0,0 l/m 0,0 km/h (0 Bft) SO 135 2,4 C 7,1 C
15.03.2012 20:32 6,9 C 72 % 1026,2 hPa 0,0 l/m 2,2 km/h (1 Bft) SO 135 2,2 C 6,9 C
15.03.2012 20:37 6,9 C 72 % 1026,3 hPa 0,0 l/m 1,4 km/h (1 Bft) SO 135 2,2 C 6,9 C
15.03.2012 20:42 6,9 C 73 % 1026,3 hPa 0,0 l/m 2,9 km/h (1 Bft) SO 135 2,4 C 6,9 C
15.03.2012 20:47 6,8 C 73 % 1026,2 hPa 0,0 l/m 0,0 km/h (0 Bft) SO 135 2,3 C 6,8 C
15.03.2012 20:52 6,7 C 73 % 1026,2 hPa 0,0 l/m 1,4 km/h (1 Bft) SO 135 2,2 C 6,7 C
15.03.2012 20:57 6,6 C 73 % 1026,2 hPa 0,0 l/m 2,2 km/h (1 Bft) SO 135 2,1 C 6,6 C
15.03.2012 21:02 6,5 C 73 % 1026,3 hPa 0,0 l/m 0,0 km/h (0 Bft) SO 135 2,0 C 6,5 C
15.03.2012 21:07 6,4 C 73 % 1026,3 hPa 0,0 l/m 1,8 km/h (1 Bft) SO 135 1,9 C 6,4 C
15.03.2012 21:12 6,4 C 74 % 1026,2 hPa 0,0 l/m 0,0 km/h (0 Bft) SO 135 2,1 C 6,4 C
15.03.2012 21:17 6,4 C 74 % 1026,2 hPa 0,0 l/m 4,0 km/h (1 Bft) S-SO 157 2,1 C 6,4 C
15.03.2012 21:22 6,4 C 74 % 1026,1 hPa 0,0 l/m 2,9 km/h (1 Bft) SO 135 2,1 C 6,4 C
15.03.2012 21:27 6,3 C 74 % 1026,1 hPa 0,0 l/m 4,7 km/h (1 Bft) SO 135 2,0 C 5,7 C
15.03.2012 21:32 6,3 C 74 % 1026,1 hPa 0,0 l/m 2,5 km/h (1 Bft) S-SO 157 2,0 C 6,3 C
15.03.2012 21:37 6,2 C 75 % 1026,1 hPa 0,0 l/m 0,0 km/h (0 Bft) SO 135 2,1 C 6,2 C
15.03.2012 21:42 6,2 C 75 % 1026,1 hPa 0,0 l/m 2,5 km/h (1 Bft) SO 135 2,1 C 6,2 C
15.03.2012 21:47 6,1 C 75 % 1026,1 hPa 0,0 l/m 0,0 km/h (0 Bft) SO 135 2,0 C 6,1 C
15.03.2012 21:52 6,1 C 75 % 1025,9 hPa 0,0 l/m 0,0 km/h (0 Bft) SO 135 2,0 C 6,1 C
15.03.2012 21:57 6,1 C 75 % 1026,0 hPa 0,0 l/m 0,0 km/h (0 Bft) SO 135 2,0 C 6,1 C
15.03.2012 22:02 5,9 C 75 % 1026,0 hPa 0,0 l/m 0,0 km/h (0 Bft) SO 135 1,8 C 5,9 C
15.03.2012 22:07 5,9 C 76 % 1026,0 hPa 0,0 l/m 0,0 km/h (0 Bft) SO 135 2,0 C 5,9 C
15.03.2012 22:12 5,8 C 76 % 1026,0 hPa 0,0 l/m 0,0 km/h (0 Bft) SO 135 1,9 C 5,8 C
15.03.2012 22:17 5,7 C 76 % 1025,8 hPa 0,0 l/m 1,8 km/h (1 Bft) SO 135 1,8 C 5,7 C
15.03.2012 22:22 5,6 C 76 % 1025,9 hPa 0,0 l/m 0,0 km/h (0 Bft) SO 135 1,7 C 5,6 C
15.03.2012 22:27 5,5 C 76 % 1025,9 hPa 0,0 l/m 1,4 km/h (1 Bft) SO 135 1,6 C 5,5 C
15.03.2012 22:32 5,4 C 76 % 1026,1 hPa 0,0 l/m 1,4 km/h (1 Bft) SO 135 1,5 C 5,4 C
15.03.2012 22:37 5,3 C 77 % 1025,8 hPa 0,0 l/m 1,1 km/h (1 Bft) SO 135 1,6 C 5,3 C
15.03.2012 22:42 5,2 C 77 % 1025,9 hPa 0,0 l/m 1,4 km/h (1 Bft) SO 135 1,5 C 5,2 C
15.03.2012 22:47 5,1 C 77 % 1025,9 hPa 0,0 l/m 0,0 km/h (0 Bft) SO 135 1,4 C 5,1 C
15.03.2012 22:52 5,1 C 77 % 1026,0 hPa 0,0 l/m 1,1 km/h (1 Bft) SO 135 1,4 C 5,1 C
15.03.2012 22:57 5,0 C 77 % 1026,0 hPa 0,0 l/m 0,0 km/h (0 Bft) SO 135 1,3 C 5,0 C
15.03.2012 23:02 4,9 C 78 % 1025,8 hPa 0,0 l/m 0,0 km/h (0 Bft) SO 135 1,4 C 4,9 C
15.03.2012 23:07 4,9 C 78 % 1025,9 hPa 0,0 l/m 0,0 km/h (0 Bft) SO 135 1,4 C 4,9 C
15.03.2012 23:12 4,8 C 78 % 1025,8 hPa 0,0 l/m 0,0 km/h (0 Bft) SO 135 1,3 C 4,8 C
15.03.2012 23:17 4,7 C 78 % 1025,9 hPa 0,0 l/m 0,0 km/h (0 Bft) SO 135 1,2 C 4,7 C
15.03.2012 23:22 4,6 C 78 % 1025,8 hPa 0,0 l/m 0,0 km/h (0 Bft) SO 135 1,1 C 4,6 C
15.03.2012 23:27 4,5 C 79 % 1025,8 hPa 0,0 l/m 0,0 km/h (0 Bft) SO 135 1,2 C 4,5 C
15.03.2012 23:32 4,5 C 79 % 1025,7 hPa 0,0 l/m 1,8 km/h (1 Bft) SO 135 1,2 C 4,5 C
15.03.2012 23:37 4,4 C 79 % 1025,9 hPa 0,0 l/m 0,0 km/h (0 Bft) SO 135 1,1 C 4,4 C
15.03.2012 23:42 4,4 C 79 % 1025,7 hPa 0,0 l/m 0,0 km/h (0 Bft) SO 135 1,1 C 4,4 C
15.03.2012 23:47 4,3 C 80 % 1025,8 hPa 0,0 l/m 1,1 km/h (1 Bft) SO 135 1,2 C 4,3 C
15.03.2012 23:52 4,3 C 79 % 1025,8 hPa 0,0 l/m 0,0 km/h (0 Bft) SO 135 1,0 C 4,3 C
15.03.2012 23:57 4,2 C 79 % 1025,7 hPa 0,0 l/m 0,0 km/h (0 Bft) SO 135 0,9 C 4,2 C
_ Min-Zeit 23:57 15:17 23:32 - 00:37 - - 23:57 23:57
Minimum _ 4,2 C 57 % 1025,7 hPa - 0,0 km/h (0 Bft) - - 0,9 C 4,2 C
_ Max-Zeit 14:57 02:37 01:02 00:02 14:22 - - 10:27 14:57
Maximum _ 12,4 C 82 % 1032,0 hPa 0,0 l/m 16,9 km/h
S-SO (3 Bft)
- - 4,7 C 12,4 C
Durchschnitt _ 8,2 C 73 % 1029,5 hPa #0,0 l/m 3,1 km/h (1 Bft) W-SW - 3,6 C 8,1 C
(c) by David Heller